| time (UTC) | temp F | wind direction | speed MPH | gust MPH | rain 1hr in | rain 24hr in | rain mn in | humidity % | barometer mb |
| 20260506212542 | 68 | 40 | 10.0 | 13.0 | 0.00 | 0.00 | 0.00 | 26 | 1012.8 |
| 20260506212037 | 68 | 62 | 9.0 | 11.0 | 0.00 | 0.00 | 0.00 | 26 | 1013.1 |
| 20260506211533 | 68 | 41 | 6.0 | 14.0 | 0.00 | 0.00 | 0.00 | 25 | 1013.1 |
| 20260506211030 | 69 | 43 | 13.0 | 16.0 | 0.00 | 0.00 | 0.00 | 24 | 1013.1 |
| 20260506210527 | 69 | 61 | 6.0 | 13.0 | 0.00 | 0.00 | 0.00 | 26 | 1012.9 |
| 20260506210024 | 69 | 302 | 5.0 | 6.0 | 0.00 | 0.00 | 0.00 | 24 | 1012.9 |
| 20260506205520 | 68 | 50 | 13.0 | 13.0 | 0.00 | 0.00 | 0.00 | 26 | 1012.8 |
| 20260506205015 | 68 | 77 | 7.0 | 14.0 | 0.00 | 0.00 | 0.00 | 26 | 1012.8 |
| 20260506204514 | 69 | 300 | 3.0 | 16.0 | 0.00 | 0.00 | 0.00 | 25 | 1012.8 |
| 20260506204010 | 69 | 311 | 4.0 | 9.0 | 0.00 | 0.00 | 0.00 | 25 | 1012.8 |
| 20260506203509 | 68 | 95 | 6.0 | 9.0 | 0.00 | 0.00 | 0.00 | 27 | 1012.8 |
| 20260506203004 | 69 | 324 | 3.0 | 6.0 | 0.00 | 0.00 | 0.00 | 26 | 1012.8 |
| 20260506202502 | 69 | 330 | 5.0 | 12.0 | 0.00 | 0.00 | 0.00 | 28 | 1012.4 |
| 20260506201957 | 67 | 45 | 5.0 | 17.0 | 0.00 | 0.00 | 0.00 | 27 | 1012.8 |
| 20260506201455 | 67 | 45 | 9.0 | 17.0 | 0.00 | 0.00 | 0.00 | 28 | 1012.7 |
| 20260506200946 | 68 | 40 | 17.0 | 20.0 | 0.00 | 0.00 | 0.00 | 27 | 1012.5 |
| 20260506200442 | 68 | 13 | 5.0 | 10.0 | 0.00 | 0.00 | 0.00 | 27 | 1012.8 |
| 20260506195939 | 69 | 302 | 4.0 | 4.0 | 0.00 | 0.00 | 0.00 | 30 | 1012.4 |
| 20260506195436 | 67 | 5 | 2.0 | 11.0 | 0.00 | 0.00 | 0.00 | 28 | 1012.7 |
| 20260506194932 | 66 | 109 | 7.0 | 20.0 | 0.00 | 0.00 | 0.00 | 26 | 1012.7 |
| 20260506194430 | 68 | 38 | 7.0 | 13.0 | 0.00 | 0.00 | 0.00 | 27 | 1012.7 |
| 20260506193926 | 68 | 262 | 4.0 | 6.0 | 0.00 | 0.00 | 0.00 | 30 | 1012.8 |
| 20260506193424 | 68 | 28 | 6.0 | 9.0 | 0.00 | 0.00 | 0.00 | 29 | 1012.4 |
| 20260506192920 | 66 | 351 | 4.0 | 16.0 | 0.00 | 0.00 | 0.00 | 28 | 1012.7 |
| 20260506192417 | 68 | 61 | 10.0 | 12.0 | 0.00 | 0.00 | 0.00 | 27 | 1012.7 |
| 20260506191914 | 69 | 4 | 3.0 | 4.0 | 0.00 | 0.00 | 0.00 | 27 | 1012.7 |
| 20260506191410 | 66 | 310 | 4.0 | 7.0 | 0.00 | 0.00 | 0.00 | 29 | 1012.4 |
| 20260506190908 | 66 | 349 | 2.0 | 5.0 | 0.00 | 0.00 | 0.00 | 31 | 1012.5 |
| 20260506190403 | 67 | 96 | 7.0 | 8.0 | 0.00 | 0.00 | 0.00 | 29 | 1012.7 |
| 20260506185900 | 66 | 286 | 2.0 | 5.0 | 0.00 | 0.00 | 0.00 | 32 | 1012.7 |
| 20260506185357 | 66 | 37 | 6.0 | 13.0 | 0.00 | 0.00 | 0.00 | 30 | 1012.7 |
| 20260506184855 | 63 | 75 | 3.0 | 10.0 | 0.00 | 0.00 | 0.00 | 34 | 1012.9 |
| 20260506184351 | 67 | 37 | 4.0 | 4.0 | 0.00 | 0.00 | 0.00 | 34 | 1012.5 |
| 20260506183849 | 67 | 256 | 2.0 | 4.0 | 0.00 | 0.00 | 0.00 | 35 | 1012.5 |
| 20260506183344 | 69 | 180 | 4.0 | 4.0 | 0.00 | 0.00 | 0.00 | 34 | 1012.7 |
| 20260506182841 | 66 | 181 | 2.0 | 4.0 | 0.00 | 0.00 | 0.00 | 34 | 1013.0 |
| 20260506182338 | 66 | 182 | 7.0 | 10.0 | 0.00 | 0.00 | 0.00 | 34 | 1012.8 |
| 20260506181831 | 66 | 261 | 2.0 | 6.0 | 0.00 | 0.00 | 0.00 | 37 | 1012.5 |
| 20260506181329 | 65 | 70 | 2.0 | 4.0 | 0.00 | 0.00 | 0.00 | 35 | 1013.0 |
| 20260506180825 | 64 | 322 | 2.0 | 4.0 | 0.00 | 0.00 | 0.00 | 38 | 1012.7 |
| 20260506180321 | 65 | 160 | 4.0 | 6.0 | 0.00 | 0.00 | 0.00 | 36 | 1012.8 |
| 20260506175817 | 65 | 203 | 0.0 | 6.0 | 0.00 | 0.00 | 0.00 | 35 | 1012.8 |
| 20260506175314 | 64 | 275 | 2.0 | 2.0 | 0.00 | 0.00 | 0.00 | 39 | 1012.7 |
| 20260506174812 | 63 | 156 | 2.0 | 5.0 | 0.00 | 0.00 | 0.00 | 37 | 1012.8 |
| 20260506174309 | 64 | 229 | 4.0 | 5.0 | 0.00 | 0.00 | 0.00 | 37 | 1012.8 |
| 20260506173806 | 64 | 193 | 5.0 | 6.0 | 0.00 | 0.00 | 0.00 | 37 | 1012.7 |
| 20260506173303 | 61 | 341 | 1.0 | 8.0 | 0.00 | 0.00 | 0.00 | 38 | 1012.5 |
| 20260506172800 | 62 | 151 | 2.0 | 4.0 | 0.00 | 0.00 | 0.00 | 41 | 1012.9 |
| 20260506172256 | 60 | 209 | 4.0 | 6.0 | 0.00 | 0.00 | 0.00 | 41 | 1012.4 |
| 20260506171754 | 60 | 178 | 5.0 | 5.0 | 0.00 | 0.00 | 0.00 | 40 | 1012.8 |
| 20260506171251 | 60 | 145 | 8.0 | 13.0 | 0.00 | 0.00 | 0.00 | 40 | 1012.5 |
| 20260506170749 | 61 | 263 | 2.0 | 5.0 | 0.00 | 0.00 | 0.00 | 42 | 1012.3 |
| 20260506170245 | 61 | 252 | 0.0 | 7.0 | 0.00 | 0.00 | 0.00 | 43 | 1012.4 |
| 20260506165743 | 62 | 249 | 2.0 | 8.0 | 0.00 | 0.00 | 0.00 | 40 | 1012.3 |
| 20260506165240 | 64 | 278 | 2.0 | 4.0 | 0.00 | 0.00 | 0.00 | 39 | 1012.3 |
| 20260506164737 | 62 | 54 | 2.0 | 2.0 | 0.00 | 0.00 | 0.00 | 43 | 1012.4 |
| 20260506164234 | 60 | 89 | 0.0 | 6.0 | 0.00 | 0.00 | 0.00 | 39 | 1012.3 |
| 20260506163731 | 58 | 72 | 3.0 | 8.0 | 0.00 | 0.00 | 0.00 | 42 | 1012.2 |
| 20260506163225 | 58 | 147 | 0.0 | 2.0 | 0.00 | 0.00 | 0.00 | 43 | 1012.3 |
| 20260506162722 | 57 | 268 | 2.0 | 2.0 | 0.00 | 0.00 | 0.00 | 46 | 1012.3 |
| 20260506162220 | 56 | 115 | 2.0 | 4.0 | 0.00 | 0.00 | 0.00 | 45 | 1012.2 |
| 20260506161717 | 55 | 185 | 2.0 | 2.0 | 0.00 | 0.00 | 0.00 | 47 | 1011.9 |
| 20260506161214 | 54 | 55 | 0.0 | 1.0 | 0.00 | 0.00 | 0.00 | 49 | 1012.1 |
| 20260506160712 | 53 | 326 | 2.0 | 3.0 | 0.00 | 0.00 | 0.00 | 49 | 1011.9 |
| 20260506160208 | 54 | 283 | 0.0 | 5.0 | 0.00 | 0.00 | 0.00 | 49 | 1011.8 |
| 20260506155707 | 53 | 346 | 2.0 | 3.0 | 0.00 | 0.00 | 0.00 | 50 | 1012.1 |
| 20260506155204 | 54 | 124 | 3.0 | 5.0 | 0.00 | 0.00 | 0.00 | 47 | 1011.8 |
| 20260506153306 | 53 | 319 | 1.0 | 3.0 | 0.00 | 0.00 | 0.00 | 46 | 1011.9 |
| 20260506152803 | 54 | 222 | 2.0 | 6.0 | 0.00 | 0.00 | 0.00 | 48 | 1011.9 |
| 20260506152300 | 54 | 177 | 3.0 | 6.0 | 0.00 | 0.00 | 0.00 | 45 | 1012.2 |
| 20260506151759 | 55 | 165 | 1.0 | 8.0 | 0.00 | 0.00 | 0.00 | 44 | 1012.2 |
| 20260506151255 | 56 | 352 | 1.0 | 4.0 | 0.00 | 0.00 | 0.00 | 47 | 1011.9 |
| 20260506150751 | 56 | 59 | 2.0 | 4.0 | 0.00 | 0.00 | 0.00 | 45 | 1012.2 |
| 20260506150249 | 54 | 164 | 0.0 | 3.0 | 0.00 | 0.00 | 0.00 | 50 | 1012.3 |
| 20260506145746 | 53 | 222 | 3.0 | 5.0 | 0.00 | 0.00 | 0.00 | 48 | 1012.3 |
| 20260506145242 | 52 | 206 | 0.0 | 2.0 | 0.00 | 0.00 | 0.00 | 52 | 1012.2 |
| 20260506144740 | 51 | 6 | 0.0 | 2.0 | 0.00 | 0.00 | 0.00 | 53 | 1012.2 |
| 20260506144237 | 51 | 315 | 0.0 | 2.0 | 0.00 | 0.00 | 0.00 | 54 | 1012.2 |
| 20260506143734 | 51 | 116 | 0.0 | 2.0 | 0.00 | 0.00 | 0.00 | 50 | 1012.1 |
| 20260506143231 | 51 | 55 | 0.0 | 2.0 | 0.00 | 0.00 | 0.00 | 53 | 1011.9 |
| 20260506142730 | 49 | 17 | 0.0 | 3.0 | 0.00 | 0.00 | 0.00 | 53 | 1012.4 |
| 20260506142228 | 47 | 57 | 2.0 | 4.0 | 0.00 | 0.00 | 0.00 | 56 | 1012.1 |
| 20260506141725 | 46 | 55 | 3.0 | 4.0 | 0.00 | 0.00 | 0.00 | 59 | 1012.1 |
| 20260506141224 | 45 | 81 | 3.0 | 5.0 | 0.00 | 0.00 | 0.00 | 60 | 1011.7 |
| 20260506140721 | 44 | 49 | 5.0 | 6.0 | 0.00 | 0.00 | 0.00 | 62 | 1012.1 |
| 20260506140218 | 43 | 42 | 4.0 | 5.0 | 0.00 | 0.00 | 0.00 | 62 | 1011.8 |
| 20260506135714 | 42 | 47 | 5.0 | 7.0 | 0.00 | 0.00 | 0.00 | 64 | 1011.6 |
| 20260506135211 | 41 | 66 | 4.0 | 6.0 | 0.00 | 0.00 | 0.00 | 66 | 1011.5 |
| 20260506134708 | 41 | 72 | 4.0 | 6.0 | 0.00 | 0.00 | 0.00 | 67 | 1011.7 |
| 20260506134204 | 40 | 67 | 5.0 | 8.0 | 0.00 | 0.00 | 0.00 | 69 | 1011.4 |
| 20260506133701 | 38 | 48 | 6.0 | 10.0 | 0.00 | 0.00 | 0.00 | 71 | 1011.1 |
| 20260506133157 | 37 | 63 | 5.0 | 6.0 | 0.00 | 0.00 | 0.00 | 72 | 1011.2 |
| 20260506132655 | 37 | 62 | 4.0 | 6.0 | 0.00 | 0.00 | 0.00 | 72 | 1010.9 |
| 20260506132152 | 37 | 82 | 4.0 | 6.0 | 0.00 | 0.00 | 0.00 | 73 | 1011.0 |
| 20260506131649 | 37 | 117 | 6.0 | 8.0 | 0.00 | 0.00 | 0.00 | 73 | 1010.9 |
| 20260506131145 | 37 | 60 | 3.0 | 6.0 | 0.00 | 0.00 | 0.00 | 72 | 1010.8 |
| 20260506130642 | 38 | 70 | 5.0 | 7.0 | 0.00 | 0.00 | 0.00 | 71 | 1011.0 |
| 20260506130139 | 38 | 60 | 4.0 | 9.0 | 0.00 | 0.00 | 0.00 | 71 | 1010.5 |
| 20260506125637 | 37 | 56 | 5.0 | 7.0 | 0.00 | 0.00 | 0.00 | 72 | 1010.8 |
| 20260506125134 | 37 | 59 | 9.0 | 10.0 | 0.00 | 0.00 | 0.00 | 72 | 1010.8 |
| 20260506124632 | 38 | 70 | 6.0 | 9.0 | 0.00 | 0.00 | 0.00 | 71 | 1010.7 |
| 20260506124130 | 38 | 89 | 4.0 | 9.0 | 0.00 | 0.00 | 0.00 | 71 | 1010.4 |
| 20260506123628 | 38 | 111 | 4.0 | 8.0 | 0.00 | 0.00 | 0.00 | 70 | 1010.5 |
| 20260506123127 | 38 | 59 | 5.0 | 9.0 | 0.00 | 0.00 | 0.00 | 69 | 1010.4 |
| 20260506122623 | 38 | 109 | 6.0 | 11.0 | 0.00 | 0.00 | 0.00 | 70 | 1010.4 |
| 20260506122120 | 38 | 74 | 5.0 | 8.0 | 0.00 | 0.00 | 0.00 | 71 | 1010.3 |
| 20260506121618 | 38 | 70 | 4.0 | 8.0 | 0.00 | 0.00 | 0.00 | 71 | 1010.2 |
| 20260506121114 | 38 | 77 | 8.0 | 12.0 | 0.00 | 0.00 | 0.00 | 71 | 1010.1 |
| 20260506120613 | 38 | 80 | 2.0 | 11.0 | 0.00 | 0.00 | 0.00 | 71 | 1010.2 |
| 20260506120110 | 37 | 112 | 3.0 | 8.0 | 0.00 | 0.00 | 0.00 | 73 | 1009.8 |
| 20260506115608 | 37 | 37 | 6.0 | 7.0 | 0.00 | 0.00 | 0.00 | 73 | 1010.1 |
| 20260506115106 | 37 | 51 | 5.0 | 8.0 | 0.00 | 0.00 | 0.00 | 74 | 1010.1 |
| 20260506114603 | 36 | 73 | 5.0 | 9.0 | 0.00 | 0.00 | 0.00 | 76 | 1009.9 |
| 20260506114101 | 36 | 121 | 4.0 | 5.0 | 0.00 | 0.00 | 0.00 | 76 | 1009.5 |
| 20260506113558 | 36 | 94 | 4.0 | 6.0 | 0.00 | 0.00 | 0.00 | 77 | 1009.6 |
| 20260506113055 | 36 | 70 | 3.0 | 4.0 | 0.00 | 0.00 | 0.00 | 77 | 1009.7 |
| 20260506112551 | 36 | 97 | 3.0 | 4.0 | 0.00 | 0.00 | 0.00 | 77 | 1009.7 |
| 20260506112049 | 36 | 63 | 4.0 | 5.0 | 0.00 | 0.00 | 0.00 | 76 | 1009.7 |
| 20260506111547 | 37 | 103 | 3.0 | 6.0 | 0.00 | 0.00 | 0.00 | 76 | 1009.4 |
| 20260506111044 | 36 | 116 | 4.0 | 5.0 | 0.00 | 0.00 | 0.00 | 77 | 1009.7 |
| 20260506110541 | 37 | 85 | 2.0 | 3.0 | 0.00 | 0.00 | 0.00 | 75 | 1009.5 |
| 20260506110038 | 37 | 92 | 1.0 | 4.0 | 0.00 | 0.00 | 0.00 | 75 | 1009.4 |
| 20260506105534 | 37 | 123 | 2.0 | 5.0 | 0.00 | 0.00 | 0.00 | 75 | 1009.5 |
| 20260506105032 | 37 | 125 | 3.0 | 3.0 | 0.00 | 0.00 | 0.00 | 75 | 1009.4 |
| 20260506104530 | 37 | 58 | 3.0 | 4.0 | 0.00 | 0.00 | 0.00 | 75 | 1009.4 |
| 20260506104027 | 37 | 121 | 3.0 | 5.0 | 0.00 | 0.00 | 0.00 | 75 | 1009.4 |
| 20260506103524 | 37 | 48 | 3.0 | 4.0 | 0.00 | 0.00 | 0.00 | 75 | 1009.5 |
| 20260506103021 | 37 | 104 | 3.0 | 4.0 | 0.00 | 0.00 | 0.00 | 75 | 1009.5 |
| 20260506102520 | 38 | 101 | 3.0 | 3.0 | 0.00 | 0.00 | 0.00 | 75 | 1009.5 |
| 20260506102017 | 38 | 81 | 2.0 | 6.0 | 0.00 | 0.00 | 0.00 | 75 | 1009.1 |
| 20260506101514 | 38 | 107 | 2.0 | 4.0 | 0.00 | 0.00 | 0.00 | 74 | 1009.1 |
| 20260506101011 | 38 | 113 | 2.0 | 5.0 | 0.00 | 0.00 | 0.00 | 74 | 1009.4 |
| 20260506100509 | 38 | 106 | 3.0 | 4.0 | 0.00 | 0.00 | 0.00 | 75 | 1009.2 |
| 20260506100007 | 38 | 104 | 2.0 | 3.0 | 0.00 | 0.00 | 0.00 | 75 | 1009.4 |
| 20260506095506 | 38 | 117 | 4.0 | 4.0 | 0.00 | 0.00 | 0.00 | 75 | 1009.2 |
| 20260506095001 | 39 | 123 | 3.0 | 3.0 | 0.00 | 0.00 | 0.00 | 74 | 1009.2 |
| 20260506094459 | 39 | 100 | 3.0 | 5.0 | 0.00 | 0.00 | 0.00 | 73 | 1009.2 |
| 20260506093956 | 39 | 67 | 3.0 | 4.0 | 0.00 | 0.00 | 0.00 | 74 | 1008.9 |
| 20260506093455 | 39 | 75 | 2.0 | 5.0 | 0.00 | 0.00 | 0.00 | 73 | 1009.0 |
| 20260506092952 | 39 | 115 | 1.0 | 4.0 | 0.00 | 0.00 | 0.00 | 74 | 1009.1 |
| 20260506092450 | 39 | 69 | 4.0 | 4.0 | 0.00 | 0.00 | 0.00 | 74 | 1009.0 |
| 20260506091946 | 39 | 106 | 4.0 | 5.0 | 0.00 | 0.00 | 0.00 | 75 | 1009.0 |
| 20260506091445 | 40 | 98 | 2.0 | 2.0 | 0.00 | 0.00 | 0.00 | 74 | 1009.0 |
| 20260506090942 | 40 | 86 | 2.0 | 3.0 | 0.00 | 0.00 | 0.00 | 74 | 1009.1 |
| 20260506090440 | 40 | 120 | 3.0 | 4.0 | 0.00 | 0.00 | 0.00 | 74 | 1009.0 |
| 20260506085935 | 40 | 88 | 2.0 | 4.0 | 0.00 | 0.00 | 0.00 | 74 | 1008.9 |
| 20260506085432 | 40 | 68 | 3.0 | 3.0 | 0.00 | 0.00 | 0.00 | 74 | 1008.9 |
| 20260506084929 | 40 | 58 | 2.0 | 3.0 | 0.00 | 0.00 | 0.00 | 73 | 1009.0 |
| 20260506084426 | 40 | 67 | 1.0 | 3.0 | 0.00 | 0.00 | 0.00 | 74 | 1008.7 |
| 20260506083922 | 41 | 100 | 3.0 | 3.0 | 0.00 | 0.00 | 0.00 | 74 | 1008.8 |
| 20260506083419 | 40 | 88 | 3.0 | 3.0 | 0.00 | 0.00 | 0.00 | 75 | 1008.9 |
| 20260506082917 | 41 | 93 | 1.0 | 3.0 | 0.00 | 0.00 | 0.00 | 74 | 1008.7 |
| 20260506082414 | 41 | 71 | 2.0 | 2.0 | 0.00 | 0.00 | 0.00 | 73 | 1008.8 |
| 20260506081909 | 41 | 97 | 2.0 | 3.0 | 0.00 | 0.00 | 0.00 | 72 | 1008.7 |
| 20260506081408 | 42 | 135 | 2.0 | 2.0 | 0.00 | 0.00 | 0.00 | 70 | 1008.8 |
| 20260506080905 | 42 | 122 | 1.0 | 3.0 | 0.00 | 0.00 | 0.00 | 69 | 1009.0 |
| 20260506080402 | 43 | 116 | 3.0 | 4.0 | 0.00 | 0.00 | 0.00 | 68 | 1008.8 |
| 20260506073345 | 44 | 86 | 2.0 | 2.0 | 0.00 | 0.00 | 0.00 | 67 | 1008.5 |
| 20260506072842 | 44 | 100 | 3.0 | 3.0 | 0.00 | 0.00 | 0.00 | 66 | 1008.7 |
| 20260506072340 | 44 | 102 | 2.0 | 3.0 | 0.00 | 0.00 | 0.00 | 67 | 1008.9 |
| 20260506071837 | 44 | 92 | 2.0 | 2.0 | 0.00 | 0.00 | 0.00 | 67 | 1008.7 |
| 20260506071335 | 44 | 70 | 2.0 | 3.0 | 0.00 | 0.00 | 0.00 | 66 | 1008.4 |
| 20260506070832 | 44 | 51 | 2.0 | 2.0 | 0.00 | 0.00 | 0.00 | 66 | 1008.7 |
| 20260506070329 | 44 | 82 | 2.0 | 2.0 | 0.00 | 0.00 | 0.00 | 66 | 1008.7 |
| 20260506062306 | 46 | 120 | 2.0 | 2.0 | 0.00 | 0.00 | 0.00 | 60 | 1008.4 |
| 20260506061802 | 46 | 145 | 0.0 | 1.0 | 0.00 | 0.00 | 0.00 | 59 | 1008.4 |
| 20260506061259 | 46 | 49 | 0.0 | 1.0 | 0.00 | 0.00 | 0.00 | 60 | 1008.5 |
| 20260506060757 | 46 | 58 | 2.0 | 2.0 | 0.00 | 0.00 | 0.00 | 57 | 1008.4 |
| 20260506060255 | 46 | 85 | 0.0 | 2.0 | 0.00 | 0.00 | 0.00 | 56 | 1008.4 |
| 20260506051226 | 47 | 95 | 2.0 | 3.0 | 0.00 | 0.00 | 0.00 | 58 | 1008.1 |
| 20260506050724 | 47 | 71 | 3.0 | 3.0 | 0.00 | 0.00 | 0.00 | 57 | 1008.2 |
| 20260506050221 | 47 | 112 | 2.0 | 2.0 | 0.00 | 0.00 | 0.00 | 57 | 1008.2 |
| 20260506044712 | 47 | 108 | 2.0 | 3.0 | 0.00 | 0.00 | 0.00 | 56 | 1008.2 |
| 20260506044209 | 47 | 88 | 2.0 | 2.0 | 0.00 | 0.00 | 0.00 | 52 | 1008.1 |
| 20260506043707 | 47 | 44 | 2.0 | 2.0 | 0.00 | 0.00 | 0.00 | 53 | 1008.2 |
| 20260506043204 | 47 | 51 | 2.0 | 2.0 | 0.00 | 0.00 | 0.00 | 55 | 1007.8 |
| 20260506042703 | 47 | 57 | 1.0 | 2.0 | 0.00 | 0.00 | 0.00 | 55 | 1007.9 |
| 20260506042200 | 47 | 44 | 2.0 | 2.0 | 0.00 | 0.00 | 0.00 | 54 | 1007.9 |
| 20260506041653 | 48 | 89 | 0.0 | 3.0 | 0.00 | 0.00 | 0.00 | 52 | 1007.7 |
| 20260506041149 | 48 | 101 | 2.0 | 3.0 | 0.00 | 0.00 | 0.00 | 52 | 1007.8 |
| 20260506040647 | 48 | 76 | 0.0 | 3.0 | 0.00 | 0.00 | 0.00 | 50 | 1007.7 |
| 20260506040143 | 49 | 91 | 2.0 | 3.0 | 0.00 | 0.00 | 0.00 | 51 | 1007.5 |
| 20260506035641 | 49 | 89 | 2.0 | 2.0 | 0.00 | 0.00 | 0.00 | 49 | 1007.2 |
| 20260506035137 | 50 | 105 | 2.0 | 3.0 | 0.00 | 0.00 | 0.00 | 47 | 1007.0 |
| 20260506034634 | 50 | 110 | 0.0 | 2.0 | 0.00 | 0.00 | 0.00 | 43 | 1006.9 |
| 20260506034131 | 50 | 101 | 2.0 | 3.0 | 0.00 | 0.00 | 0.00 | 45 | 1007.0 |
| 20260506033628 | 50 | 113 | 2.0 | 2.0 | 0.00 | 0.00 | 0.00 | 45 | 1007.0 |
| 20260506033125 | 50 | 108 | 1.0 | 2.0 | 0.00 | 0.00 | 0.00 | 44 | 1006.8 |
| 20260506032623 | 50 | 358 | 1.0 | 3.0 | 0.00 | 0.00 | 0.00 | 44 | 1006.9 |
| 20260506032119 | 51 | 113 | 1.0 | 2.0 | 0.00 | 0.00 | 0.00 | 43 | 1006.5 |
| 20260506031616 | 51 | 184 | 0.0 | 2.0 | 0.00 | 0.00 | 0.00 | 42 | 1006.4 |
| 20260506031113 | 51 | 201 | 1.0 | 1.0 | 0.00 | 0.00 | 0.00 | 41 | 1006.4 |
| 20260506030612 | 52 | 79 | 1.0 | 4.0 | 0.00 | 0.00 | 0.00 | 42 | 1006.4 |
| 20260506030109 | 52 | 236 | 1.0 | 4.0 | 0.00 | 0.00 | 0.00 | 42 | 1006.2 |
| 20260506025606 | 52 | 181 | 2.0 | 3.0 | 0.00 | 0.00 | 0.00 | 41 | 1005.9 |
| 20260506025102 | 52 | 176 | 0.0 | 3.0 | 0.00 | 0.00 | 0.00 | 45 | 1005.9 |
| 20260506024600 | 53 | 293 | 0.0 | 3.0 | 0.00 | 0.00 | 0.00 | 42 | 1005.9 |
| 20260506024056 | 53 | 82 | 1.0 | 3.0 | 0.00 | 0.00 | 0.00 | 41 | 1005.9 |
| 20260506023552 | 53 | 285 | 2.0 | 5.0 | 0.00 | 0.00 | 0.00 | 42 | 1005.8 |
| 20260506023050 | 53 | 322 | 2.0 | 3.0 | 0.00 | 0.00 | 0.00 | 41 | 1005.5 |
| 20260506022547 | 53 | 303 | 3.0 | 4.0 | 0.00 | 0.00 | 0.00 | 43 | 1005.4 |
| 20260506022044 | 53 | 311 | 4.0 | 4.0 | 0.00 | 0.00 | 0.00 | 43 | 1005.6 |
| 20260506021542 | 53 | 297 | 2.0 | 2.0 | 0.00 | 0.00 | 0.00 | 46 | 1005.5 |
| 20260506021039 | 53 | 35 | 0.0 | 2.0 | 0.00 | 0.00 | 0.00 | 43 | 1005.4 |
| 20260506020536 | 54 | 356 | 1.0 | 3.0 | 0.00 | 0.00 | 0.00 | 44 | 1005.4 |
| 20260506020033 | 55 | 298 | 1.0 | 4.0 | 0.00 | 0.00 | 0.00 | 42 | 1005.1 |
| 20260506015531 | 55 | 3 | 1.0 | 5.0 | 0.00 | 0.00 | 0.00 | 40 | 1004.9 |
| 20260506015028 | 55 | 314 | 2.0 | 5.0 | 0.00 | 0.00 | 0.00 | 39 | 1004.9 |
| 20260506014525 | 56 | 223 | 1.0 | 4.0 | 0.00 | 0.00 | 0.00 | 42 | 1004.9 |
| 20260506014021 | 57 | 17 | 1.0 | 3.0 | 0.00 | 0.00 | 0.00 | 41 | 1004.9 |
| 20260506013519 | 57 | 308 | 0.0 | 5.0 | 0.00 | 0.00 | 0.00 | 39 | 1004.8 |
| 20260506013016 | 58 | 254 | 6.0 | 6.0 | 0.00 | 0.00 | 0.00 | 37 | 1004.8 |
| 20260506012512 | 58 | 300 | 2.0 | 3.0 | 0.00 | 0.00 | 0.00 | 38 | 1004.8 |
| 20260506012009 | 58 | 247 | 3.0 | 5.0 | 0.00 | 0.00 | 0.00 | 38 | 1004.8 |
| 20260506011506 | 59 | 311 | 2.0 | 4.0 | 0.00 | 0.00 | 0.00 | 37 | 1004.5 |
| 20260506011002 | 59 | 279 | 3.0 | 5.0 | 0.00 | 0.00 | 0.00 | 37 | 1004.8 |
| 20260506010502 | 60 | 295 | 3.0 | 4.0 | 0.00 | 0.00 | 0.00 | 36 | 1004.5 |
| 20260506005957 | 59 | 298 | 3.0 | 4.0 | 0.00 | 0.00 | 0.00 | 36 | 1004.8 |
| 20260506005455 | 60 | 199 | 2.0 | 4.0 | 0.00 | 0.00 | 0.00 | 34 | 1004.9 |
| 20260506004950 | 60 | 298 | 5.0 | 9.0 | 0.00 | 0.00 | 0.00 | 35 | 1004.7 |
| 20260506004449 | 60 | 288 | 4.0 | 5.0 | 0.00 | 0.00 | 0.00 | 35 | 1005.1 |
| 20260506003944 | 61 | 281 | 4.0 | 7.0 | 0.00 | 0.00 | 0.00 | 35 | 1005.0 |
| 20260506003441 | 61 | 221 | 2.0 | 3.0 | 0.00 | 0.00 | 0.00 | 34 | 1004.8 |
| 20260506002937 | 61 | 272 | 2.0 | 6.0 | 0.00 | 0.00 | 0.00 | 34 | 1005.0 |
| 20260506002433 | 60 | 333 | 0.0 | 4.0 | 0.00 | 0.00 | 0.00 | 35 | 1004.8 |
| 20260506001929 | 62 | 307 | 3.0 | 4.0 | 0.00 | 0.00 | 0.00 | 35 | 1004.8 |
| 20260506001426 | 61 | 265 | 1.0 | 5.0 | 0.00 | 0.00 | 0.00 | 34 | 1005.0 |
| 20260506000923 | 61 | 353 | 2.0 | 8.0 | 0.00 | 0.00 | 0.00 | 35 | 1005.1 |
| 20260506000423 | 61 | 246 | 0.0 | 2.0 | 0.00 | 0.00 | 0.00 | 38 | 1004.9 |
| 20260505235917 | 58 | 284 | 2.0 | 2.0 | 0.00 | 0.00 | 0.00 | 40 | 1004.9 |
| 20260505235416 | 58 | 353 | 1.0 | 3.0 | 0.00 | 0.00 | 0.00 | 42 | 1005.1 |
| 20260505234912 | 57 | 264 | 2.0 | 4.0 | 0.00 | 0.00 | 0.00 | 41 | 1005.0 |
| 20260505234410 | 57 | 297 | 3.0 | 3.0 | 0.00 | 0.00 | 0.00 | 41 | 1005.2 |
| 20260505233906 | 57 | 308 | 4.0 | 4.0 | 0.00 | 0.00 | 0.00 | 39 | 1005.0 |
| 20260505233404 | 58 | 298 | 2.0 | 4.0 | 0.00 | 0.00 | 0.00 | 38 | 1005.4 |
| 20260505232901 | 58 | 269 | 3.0 | 4.0 | 0.00 | 0.00 | 0.00 | 38 | 1005.2 |
| 20260505232359 | 59 | 285 | 2.0 | 4.0 | 0.00 | 0.00 | 0.00 | 38 | 1005.1 |
| 20260505231855 | 58 | 319 | 2.0 | 7.0 | 0.00 | 0.00 | 0.00 | 38 | 1005.0 |
| 20260505231353 | 59 | 314 | 5.0 | 5.0 | 0.00 | 0.00 | 0.00 | 37 | 1005.1 |
| 20260505230851 | 59 | 234 | 3.0 | 4.0 | 0.00 | 0.00 | 0.00 | 36 | 1005.1 |
| 20260505230348 | 59 | 305 | 4.0 | 6.0 | 0.00 | 0.00 | 0.00 | 36 | 1005.1 |
| 20260505225845 | 59 | 314 | 5.0 | 7.0 | 0.00 | 0.00 | 0.00 | 36 | 1005.0 |
| 20260505225342 | 59 | 325 | 2.0 | 5.0 | 0.00 | 0.00 | 0.00 | 32 | 1004.9 |
| 20260505224837 | 60 | 343 | 5.0 | 8.0 | 0.00 | 0.00 | 0.00 | 33 | 1004.9 |
| 20260505224335 | 60 | 292 | 7.0 | 8.0 | 0.00 | 0.00 | 0.00 | 34 | 1005.2 |
| 20260505223832 | 60 | 280 | 3.0 | 7.0 | 0.00 | 0.00 | 0.00 | 35 | 1005.1 |
| 20260505223329 | 62 | 301 | 4.0 | 4.0 | 0.00 | 0.00 | 0.00 | 30 | 1005.0 |
| 20260505222825 | 63 | 278 | 3.0 | 6.0 | 0.00 | 0.00 | 0.00 | 32 | 1005.1 |
| 20260505222321 | 64 | 272 | 2.0 | 6.0 | 0.00 | 0.00 | 0.00 | 29 | 1004.8 |
| 20260505221818 | 67 | 279 | 4.0 | 6.0 | 0.00 | 0.00 | 0.00 | 28 | 1004.9 |
| 20260505221315 | 68 | 290 | 3.0 | 7.0 | 0.00 | 0.00 | 0.00 | 28 | 1005.0 |
| 20260505220812 | 68 | 290 | 2.0 | 5.0 | 0.00 | 0.00 | 0.00 | 28 | 1004.9 |
| 20260505220309 | 67 | 274 | 4.0 | 8.0 | 0.00 | 0.00 | 0.00 | 30 | 1005.0 |
| 20260505215807 | 65 | 136 | 7.0 | 11.0 | 0.00 | 0.00 | 0.00 | 27 | 1005.0 |
| 20260505215305 | 64 | 272 | 3.0 | 11.0 | 0.00 | 0.00 | 0.00 | 28 | 1005.5 |
| 20260505214802 | 66 | 148 | 4.0 | 6.0 | 0.00 | 0.00 | 0.00 | 24 | 1005.4 |
| 20260505214300 | 66 | 283 | 4.0 | 9.0 | 0.00 | 0.00 | 0.00 | 30 | 1005.2 |
| 20260505213756 | 67 | 318 | 3.0 | 6.0 | 0.00 | 0.00 | 0.00 | 27 | 1005.1 |
| 20260505213254 | 67 | 289 | 3.0 | 6.0 | 0.00 | 0.00 | 0.00 | 27 | 1005.5 |
| 20260505212749 | 67 | 237 | 2.0 | 4.0 | 0.00 | 0.00 | 0.00 | 29 | 1005.6 |